Inquirer Daily News

Weather

Get conditions and forecasts for any City, State, ZIP code or Country:  
Northeast Philadelphia, PA
on Tuesday, November 27, 2012

Tuesday
Previous Day Next Day
Daily Summary
 ActualAverage (KTTN)Record (KTTN)
Temperature
Mean Temperature °F 42°F  
Max Temperature 37°F 50°F 73°F (1896)
Min Temperature 34°F 34°F 12°F (1932)
Degree Days
Heating Degree Days 30 23  
Month to date heating degree days 508  
Since 1 July heating degree days 905  
Cooling Degree Days 0 0  
Month to date cooling degree days 0  
Year to date cooling degree days 965  
Moisture
Dew Point 33°F   
Average Humidity 89    
Maximum Humidity 96    
Minimum Humidity 70    
Precipitation
Precipitation 0.60 in 0.13 in 1.87 in (2013)
Month to date precipitation 2.91  
Year to date precipitation 42.34  
Wind
Wind Speed 6 mph   
Max Wind Speed 12 mph   
Max Gust Speed mph   
Visibility 5 miles   
Events Rain   

Key: T is trace of precipitation, MM is missing value
Source: NWS Daily Summary
Time(EST)TemperatureDew PointHumidity Pressure Visibility Wind DirectionWind SpeedGust SpeedPrecipitationEvents Conditions
12:54 AM 34.0°F 27.0°F 75% 30.27 in 10.0 miles Calm Calm - N/A   Overcast
1:54 AM 35.1°F 28.9°F 78% 30.27 in 9.0 miles Calm Calm - N/A   Overcast
2:54 AM 36.0°F 28.0°F 73% 30.27 in 10.0 miles NE 3.5 mph - N/A   Overcast
3:54 AM 37.0°F 28.0°F 70% 30.26 in 10.0 miles NE 3.5 mph - N/A   Overcast
4:54 AM 37.0°F 28.9°F 73% 30.27 in 10.0 miles Calm Calm - N/A   Overcast
5:54 AM 37.0°F 28.9°F 73% 30.28 in 8.0 miles NNE 5.8 mph - 0.00 in Rain Light Rain
6:37 AM 37.4°F 30.2°F 75% 30.28 in 8.0 miles Calm Calm - 0.02 in Rain Light Rain
6:54 AM 37.0°F 32.0°F 82% 30.29 in 6.0 miles SE 3.5 mph - 0.04 in Rain Light Rain
7:54 AM 37.9°F 34.0°F 86% 30.28 in 4.0 miles ENE 5.8 mph - 0.06 in Rain Light Rain
8:51 AM 37.4°F 35.6°F 93% 30.26 in 2.5 miles NE 9.2 mph - 0.06 in Rain Light Rain
8:54 AM 37.0°F 35.1°F 93% 30.26 in 2.5 miles NE 10.4 mph - 0.07 in Rain Light Rain
9:01 AM 37.4°F 35.6°F 93% 30.26 in 3.0 miles NE 10.4 mph - 0.00 in Rain Light Rain
9:16 AM 37.4°F 35.6°F 93% 30.25 in 3.0 miles NE 10.4 mph - 0.01 in Rain Light Rain
9:29 AM 37.4°F 35.6°F 93% 30.26 in 3.0 miles NE 9.2 mph - 0.02 in Rain Light Rain
9:34 AM 37.4°F 33.8°F 87% 30.26 in 2.5 miles NE 8.1 mph - 0.03 in Rain Light Rain
9:44 AM 35.6°F 33.8°F 93% 30.26 in 2.0 miles NE 9.2 mph - 0.04 in Rain Rain
9:54 AM 36.0°F 34.0°F 93% 30.27 in 1.8 miles ENE 6.9 mph - 0.05 in Rain Rain
10:04 AM 35.6°F 33.8°F 93% 30.27 in 2.0 miles NE 6.9 mph - 0.02 in Rain Light Rain
10:19 AM 35.6°F 33.8°F 93% 30.27 in 1.8 miles NNE 8.1 mph - 0.04 in Rain Rain
10:35 AM 35.6°F 33.8°F 93% 30.27 in 2.0 miles NNE 9.2 mph - 0.06 in Rain Light Rain
10:49 AM 35.6°F 33.8°F 93% 30.28 in 1.8 miles NNE 8.1 mph - N/A Rain Rain
10:54 AM 35.1°F 33.1°F 92% 30.28 in 1.8 miles NNE 9.2 mph - 0.08 in Rain Rain
11:03 AM 35.6°F 33.8°F 93% 30.27 in 2.0 miles NNE 8.1 mph - 0.02 in Rain Rain
11:12 AM 35.6°F 33.8°F 93% 30.27 in 2.5 miles NNE 9.2 mph - 0.03 in Rain Light Rain
11:54 AM 34.0°F 33.1°F 96% 30.25 in 2.5 miles NE 11.5 mph - 0.09 in Rain Rain
12:54 PM 34.0°F 33.1°F 96% 30.23 in 2.5 miles NE 10.4 mph - 0.10 in Rain Light Rain
1:54 PM 35.1°F 33.1°F 92% 30.22 in 2.0 miles NNE 10.4 mph - 0.05 in Rain Light Rain
2:18 PM 35.6°F 33.8°F 93% 30.21 in 1.5 miles NNE 9.2 mph - 0.02 in Rain Light Rain
2:54 PM 35.1°F 33.1°F 92% 30.21 in 1.5 miles NE 9.2 mph - 0.04 in Rain Light Rain
3:02 PM 35.6°F 33.8°F 93% 30.21 in 1.5 miles NE 10.4 mph - 0.01 in Rain Light Rain
3:11 PM 35.6°F 33.8°F 93% 30.21 in 1.5 miles NE 10.4 mph - 0.01 in Rain Light Rain
3:25 PM 35.6°F 33.8°F 93% 30.21 in 1.5 miles NNE 10.4 mph - 0.02 in Rain Light Rain
3:54 PM 35.1°F 33.1°F 92% 30.21 in 2.5 miles NNE 10.4 mph - 0.02 in   Overcast
4:54 PM 35.1°F 33.1°F 92% 30.21 in 10.0 miles NNE 9.2 mph - 0.00 in   Overcast
5:54 PM 35.1°F 33.1°F 92% 30.22 in 10.0 miles NNE 8.1 mph - N/A   Overcast
6:54 PM 35.1°F 33.1°F 92% 30.23 in 8.0 miles North 10.4 mph - N/A   Overcast
7:24 PM 35.6°F 33.8°F 93% 30.23 in 10.0 miles NNE 9.2 mph - N/A   Overcast
7:46 PM 35.6°F 33.8°F 93% 30.24 in 10.0 miles North 8.1 mph - N/A   Overcast
7:54 PM 36.0°F 33.1°F 89% 30.24 in 10.0 miles North 8.1 mph - N/A   Overcast
8:54 PM 36.0°F 33.1°F 89% 30.25 in 10.0 miles North 6.9 mph - N/A   Overcast
9:54 PM 36.0°F 33.1°F 89% 30.24 in 10.0 miles North 6.9 mph - N/A   Overcast
10:54 PM 36.0°F 33.1°F 89% 30.25 in 10.0 miles North 8.1 mph - N/A   Overcast
11:54 PM 36.0°F 33.1°F 89% 30.25 in 10.0 miles North 9.2 mph - N/A   Overcast
Astronomy
Sunrise:06:59 AM (EST) Moon Rise:04:06 PM (EST)11/27
Sunset:04:36 PM (EST) Moon Set:06:02 AM (EST)11/27
Moon Phase
Nov. 27 Nov. 28 Dec. 06 Dec. 13 Dec. 20

Copyright © 2014 The Weather Underground, Inc.